CET,Max TemperatureF,Mean TemperatureF,Min TemperatureF,Max Dew PointF,MeanDew PointF,Min DewpointF,Max Humidity, Mean Humidity, Min Humidity, Max Sea Level PressureIn, Mean Sea Level PressureIn, Min Sea Level PressureIn, Max VisibilityMiles, Mean VisibilityMiles, Min VisibilityMiles, Max Wind SpeedMPH, Mean Wind SpeedMPH, Max Gust SpeedMPH,PrecipitationIn, CloudCover, Events, WindDirDegrees
2013-10-1,70,66,61,68,64,57,100,94,78,29.89,29.81,29.77,16,6,0,5,1,,0.12,3,Fog-Rain,256
2013-10-2,82,71,60,70,65,51,100,86,52,30.16,29.86,29.78,12,5,0,8,1,,0.08,1,Fog-Rain-Thunderstorm,78
2013-10-3,85,74,64,66,63,55,100,69,37,29.95,29.83,29.74,19,7,6,21,9,26,0.00,1,Thunderstorm,116
2013-10-4,75,68,62,64,62,54,100,85,54,30.15,30.01,29.95,19,6,4,15,3,29,0.03,3,Rain-Thunderstorm,258
2013-10-5,72,62,52,57,54,49,100,78,38,30.33,30.24,30.15,16,7,6,10,4,,0.00,2,,277
2013-10-6,71,63,53,57,54,50,94,76,50,30.33,30.29,30.24,19,7,6,13,4,,0.00,2,,276
2013-10-7,72,61,50,54,50,43,100,75,29,30.28,30.22,30.15,19,18,16,9,4,,0.00,,,255
2013-10-8,71,58,44,54,50,45,100,77,40,30.30,30.25,30.21,19,7,6,10,3,,0.00,2,,270
2013-10-9,69,62,54,54,50,45,88,68,38,30.30,30.23,30.15,16,8,6,12,5,,0.00,5,,275
2013-10-10,66,56,46,54,49,43,100,78,37,30.18,30.11,30.04,19,8,6,12,5,,0.00,5,,284
2013-10-11,63,56,46,48,44,38,88,68,36,30.09,30.04,29.98,16,7,6,9,5,,0.00,5,,291
2013-10-12,64,50,35,48,41,33,100,73,25,30.15,30.08,30.04,19,8,6,5,1,,0.00,3,Fog,113
2013-10-13,69,54,38,52,45,37,100,75,34,30.17,30.12,30.09,19,8,6,7,1,,0.00,1,Fog,254
2013-10-14,71,59,47,59,52,45,100,77,33,30.15,30.11,30.06,19,7,6,6,1,,0.02,3,Rain,105
2013-10-15,65,60,56,63,59,54,100,94,69,30.12,30.07,30.06,12,7,6,5,1,,0.02,4,Rain,110
2013-10-16,77,64,52,61,56,47,100,74,26,30.18,30.12,30.08,19,6,0,21,4,33,0.00,1,Fog,270
2013-10-17,77,65,53,61,57,51,100,77,37,30.18,30.10,30.00,19,9,6,8,1,,0.00,4,Fog,76
2013-10-18,81,66,51,61,56,50,100,73,35,30.01,29.92,29.83,19,11,6,8,3,,0.00,5,Rain,77
2013-10-19,75,65,55,61,56,51,100,78,38,29.98,29.93,29.86,12,7,6,6,1,,0.01,2,Rain,30
2013-10-20,74,62,51,59,55,49,100,78,32,30.09,30.04,29.98,9,6,6,6,1,,0.00,1,,120
2013-10-21,72,58,45,54,50,43,100,73,29,30.09,30.00,29.87,19,7,6,14,3,,0.00,1,,123
2013-10-22,68,64,60,59,52,43,94,61,33,29.86,29.76,29.70,16,7,6,17,10,15,0.04,3,,118
2013-10-23,73,60,46,59,51,46,100,80,32,30.04,29.93,29.80,16,5,0,4,1,,0.01,1,Fog,160
2013-10-24,73,60,47,59,52,44,100,75,42,30.04,29.92,29.79,19,8,6,20,5,28,0.04,3,,99
2013-10-25,73,66,58,64,60,50,100,84,40,29.92,29.88,29.85,12,6,2,14,6,,0.16,3,Rain,122
2013-10-26,69,62,53,63,57,49,100,81,46,30.15,30.04,29.95,19,7,6,14,4,,0.00,2,,175
2013-10-27,69,56,42,55,50,42,100,84,39,30.27,30.20,30.12,12,8,6,7,1,,0.00,1,,226
2013-10-28,64,52,41,55,49,40,100,86,55,30.12,30.06,30.01,9,6,5,9,2,,0.00,3,Fog-Rain,255
2013-10-29,57,52,46,52,46,38,100,80,43,30.27,30.19,30.12,19,8,6,10,4,,0.00,5,Rain,277
2013-10-30,58,51,42,48,44,39,100,78,53,30.31,30.28,30.24,16,7,6,12,6,,0.00,3,Rain,275
2013-10-31,64,52,41,43,39,30,100,70,17,30.33,30.26,30.20,19,18,16,14,7,,0.00,,,270